User: anonymous   Login
Location: Unspecified
(0.0000°N, 0.0000°E)
Time: 23:13:42
(UTC+00:00)
Language:

BREEZE-M R/B - Orbit

View from above orbital plane
View from above orbital plane
View from above satellite
View from above satellite

Ground track
Ground track

The orbit data is extracted from the following two-line orbital elements,

1 39173U 13026B   20274.39671137 -.00000356  00000-0  00000+0 0  9991
2 39173  23.8855 143.1632 7573700 241.9837  24.6692  1.10514880 29580
Epoch (UTC): 30 September 2020 09:31:15
Eccentricity: 0.7573700
inclination: 23.8855°
perigee height: 3210 km
apogee height: 63068 km
right ascension of ascending node: 143.1632°
argument of perigee: 241.9837°
revolutions per day: 1.10514880
mean anomaly at epoch: 24.6692°
orbit number at epoch: 2958

The dashed part of the orbit path shows where the satellite is in the earth's shadow,  

DLR